Midland, MI

4:40 PM EST on December 13, 2017 (GMT -0500)
Barstow

Weather History for KIKW - August, 2013

Change the Weather History Date:

Saturday, August 31, 2013

  Actual Average (KMBS) Record (KMBS)
Temperature  
Mean Temperature 69 °F -  
Max Temperature 77 °F 77 °F 91 °F (2010)
Min Temperature 61 °F 53 °F 44 °F (1999)
Cooling Degree Days 4    
Growing Degree Days 19 (Base 50)    
Moisture  
Dew Point 65 °F    
Average Humidity 84    
Maximum Humidity 99    
Minimum Humidity 61    
Precipitation  
Precipitation 0.00 in - - ()
Sea Level Pressure  
Sea Level Pressure 29.84 in    
Wind  
Wind Speed 2 mph (NNE)    
Max Wind Speed 7 mph    
Max Gust Speed -    
Visibility 9 miles    
Events      
Averages and records for this station are not official NWS values.
T = Trace of Precipitation, MM = Missing Value Source: NWS Daily Summary

Daily Weather History Graph

Daily Weather History Graph

Search for Another Location

Airport or City:

Trip Planner

Search our weather history database for the weather conditions in past years. The results will help you decide how hot, cold, wet, or windy it might be!

Date:

Astronomy

Aug. 31, 2013 Rise Set
Actual Time 6:59 AM EDT 8:13 PM EDT
Civil Twilight 6:30 AM EDT 8:43 PM EDT
Nautical Twilight 5:54 AM EDT 9:18 PM EDT
Astronomical Twilight 5:17 AM EDT 9:56 PM EDT
Moon 2:22 AM EDT (8/31) 5:16 PM EDT (8/31)
Length of Visible Light 14h 13m
Length of Day
13h 13m
Waning Crescent, 21% of the Moon is Illuminated
Aug 31
Waning Crescent
Sep 5
New
Sep 12
First Quarter
Sep 19
Full
Sep 26
Last Quarter

Hourly Weather History & Observations

Time (EDT) Temp. Dew Point Humidity Pressure Visibility Wind Dir Wind Speed Gust Speed Precip Events Conditions
12:13 AM 68.5 °F 67.5 °F 96% 29.81 in 10.0 mi Calm Calm - N/A   Overcast
12:34 AM 68.7 °F 67.3 °F 95% 29.80 in 10.0 mi Calm Calm - N/A   Overcast
12:53 AM 68.5 °F 67.3 °F 96% 29.81 in 10.0 mi Calm Calm - N/A   Overcast
1:13 AM 68.9 °F 67.5 °F 95% 29.81 in 10.0 mi Calm Calm - N/A   Overcast
1:33 AM 68.4 °F 67.1 °F 96% 29.80 in 10.0 mi NNW 3.5 mph - N/A   Overcast
1:53 AM 68.2 °F 66.9 °F 96% 29.80 in 10.0 mi NNW 3.5 mph - N/A   Overcast
2:12 AM 67.1 °F 66.4 °F 98% 29.80 in 10.0 mi NNW 3.5 mph - N/A   Scattered Clouds
2:33 AM 66.7 °F 66.2 °F 98% 29.80 in 10.0 mi Calm Calm - N/A   Scattered Clouds
2:53 AM 67.1 °F 66.4 °F 98% 29.80 in 10.0 mi Calm Calm - N/A   Overcast
3:12 AM 67.3 °F 66.6 °F 98% 29.80 in 10.0 mi Calm Calm - N/A   Overcast
3:33 AM 67.5 °F 66.6 °F 97% 29.81 in 10.0 mi NNW 3.5 mph - N/A   Overcast
3:53 AM 68.2 °F 67.1 °F 96% 29.81 in 10.0 mi Calm Calm - N/A   Overcast
4:12 AM 68.4 °F 66.7 °F 95% 29.82 in 10.0 mi Calm Calm - N/A   Overcast
4:33 AM 68.4 °F 67.1 °F 96% 29.82 in 10.0 mi Calm Calm - N/A   Overcast
4:53 AM 68.2 °F 67.1 °F 96% 29.82 in 10.0 mi Calm Calm - N/A   Overcast
5:13 AM 68.4 °F 67.1 °F 96% 29.82 in 10.0 mi Calm Calm - N/A   Overcast
5:33 AM 68.2 °F 67.1 °F 96% 29.82 in 10.0 mi Calm Calm - N/A   Overcast
5:53 AM 68.2 °F 66.9 °F 96% 29.83 in 10.0 mi Calm Calm - N/A   Overcast
6:13 AM 68.0 °F 67.1 °F 97% 29.84 in 10.0 mi Calm Calm - N/A   Overcast
6:33 AM 67.8 °F 66.6 °F 96% 29.83 in 10.0 mi North 3.5 mph - N/A   Overcast
6:53 AM 67.6 °F 66.4 °F 96% 29.84 in 10.0 mi NNW 3.5 mph - N/A   Overcast
7:13 AM 67.6 °F 66.0 °F 95% 29.84 in 10.0 mi North 5.8 mph - N/A   Overcast
7:33 AM 67.5 °F 65.7 °F 94% 29.84 in 10.0 mi North 4.6 mph - N/A   Overcast
7:53 AM 67.5 °F 65.5 °F 93% 29.85 in 10.0 mi North 3.5 mph - N/A   Overcast
8:13 AM 67.5 °F 65.5 °F 93% 29.85 in 10.0 mi North 5.8 mph - N/A   Overcast
8:33 AM 67.5 °F 65.5 °F 93% 29.87 in 10.0 mi NNW 4.6 mph - N/A   Overcast
8:53 AM 67.6 °F 65.3 °F 92% 29.87 in 10.0 mi North 3.5 mph - N/A   Overcast
9:13 AM 68.4 °F 65.8 °F 92% 29.87 in 10.0 mi North 4.6 mph - N/A   Overcast
9:33 AM 68.4 °F 65.5 °F 90% 29.87 in 10.0 mi North 4.6 mph - N/A   Overcast
9:53 AM 68.9 °F 65.3 °F 88% 29.87 in 10.0 mi Calm Calm - N/A   Overcast
10:13 AM 70.2 °F 65.8 °F 86% 29.88 in 10.0 mi North 3.5 mph - N/A   Overcast
10:33 AM 70.3 °F 65.1 °F 83% 29.88 in 10.0 mi NNE 6.9 mph - N/A   Overcast
10:53 AM 71.8 °F 65.3 °F 80% 29.87 in 10.0 mi ENE 5.8 mph - N/A   Overcast
11:13 AM 73.0 °F 65.1 °F 76% 29.87 in 10.0 mi ENE 4.6 mph - N/A   Overcast
11:33 AM 72.5 °F 64.2 °F 75% 29.87 in 10.0 mi NNE 4.6 mph - N/A   Overcast
11:53 AM 73.6 °F 64.2 °F 72% 29.87 in 10.0 mi Calm Calm - N/A   Overcast
12:13 PM 73.8 °F 63.0 °F 69% 29.86 in 10.0 mi East 6.9 mph - N/A   Overcast
12:33 PM 73.8 °F 63.3 °F 70% 29.86 in 10.0 mi NE 4.6 mph - N/A   Overcast
12:53 PM 74.1 °F 62.4 °F 67% 29.86 in 10.0 mi Calm Calm - N/A   Overcast
1:13 PM 73.9 °F 63.3 °F 69% 29.86 in 10.0 mi Calm Calm - N/A   Overcast
1:33 PM 73.6 °F 62.6 °F 68% 29.87 in 10.0 mi NE 3.5 mph - N/A   Overcast
1:53 PM 74.3 °F 63.5 °F 69% 29.87 in 10.0 mi Calm Calm - N/A   Overcast
2:13 PM 74.1 °F 62.2 °F 66% 29.87 in 10.0 mi Calm Calm - N/A   Overcast
2:33 PM 74.3 °F 62.2 °F 66% 29.87 in 10.0 mi Calm Calm - N/A   Overcast
2:53 PM 74.5 °F 62.1 °F 65% 29.87 in 10.0 mi Calm Calm - N/A   Overcast
3:13 PM 74.8 °F 62.1 °F 64% 29.87 in 10.0 mi Calm Calm - N/A   Overcast
3:34 PM 75.4 °F 62.6 °F 64% 29.86 in 10.0 mi Calm Calm - N/A   Overcast
3:53 PM 75.6 °F 62.6 °F 64% 29.86 in 10.0 mi Calm Calm - N/A   Overcast
4:13 PM 76.1 °F 62.8 °F 63% 29.87 in 10.0 mi NNE 4.6 mph - N/A   Overcast
4:33 PM 75.6 °F 62.2 °F 63% 29.87 in 10.0 mi NNW 3.5 mph - N/A   Overcast
4:53 PM 75.7 °F 63.0 °F 64% 29.86 in 10.0 mi ENE 5.8 mph - N/A   Overcast
5:14 PM 76.3 °F 63.0 °F 63% 29.85 in 10.0 mi ENE 4.6 mph - N/A   Overcast
5:33 PM 75.4 °F 62.4 °F 64% 29.84 in 10.0 mi NNE 3.5 mph - N/A   Scattered Clouds
5:53 PM 77.2 °F 63.0 °F 61% 29.84 in 10.0 mi East 6.9 mph - N/A   Scattered Clouds
6:14 PM 76.3 °F 63.3 °F 64% 29.84 in 10.0 mi NE 4.6 mph - N/A   Scattered Clouds
6:33 PM 74.8 °F 63.5 °F 68% 29.84 in 10.0 mi Calm Calm - N/A   Clear
6:53 PM 75.4 °F 63.5 °F 66% 29.83 in 10.0 mi ENE 5.8 mph - N/A   Clear
7:14 PM 74.3 °F 63.5 °F 69% 29.83 in 10.0 mi ENE 3.5 mph - N/A   Clear
7:33 PM 73.6 °F 63.9 °F 72% 29.82 in 10.0 mi East 6.9 mph - N/A   Clear
7:53 PM 71.4 °F 64.4 °F 78% 29.82 in 10.0 mi East 5.8 mph - N/A   Clear
8:13 PM 69.3 °F 64.4 °F 84% 29.82 in 10.0 mi East 5.8 mph - N/A   Clear
8:33 PM 68.0 °F 64.4 °F 88% 29.82 in 10.0 mi ENE 4.6 mph - N/A   Clear
8:53 PM 67.3 °F 65.1 °F 93% 29.83 in 10.0 mi Calm Calm - N/A   Clear
9:14 PM 66.0 °F 64.6 °F 95% 29.84 in 10.0 mi Calm Calm - N/A   Clear
9:33 PM 64.4 °F 63.7 °F 98% 29.84 in 5.0 mi Calm Calm - N/A   Clear
9:53 PM 64.8 °F 64.4 °F 99% 29.85 in 7.0 mi Calm Calm - N/A   Clear
10:14 PM 62.2 °F 61.9 °F 99% 29.85 in 2.5 mi Calm Calm - N/A   Clear
10:33 PM 63.1 °F 63.0 °F 99% 29.85 in 5.0 mi NE 3.5 mph - N/A   Clear
10:53 PM 61.5 °F 61.3 °F 99% 29.86 in 3.0 mi Calm Calm - N/A   Clear
11:14 PM 61.9 °F 61.7 °F 99% 29.87 in 5.0 mi Calm Calm - N/A   Clear
11:33 PM 61.5 °F 61.3 °F 99% 29.87 in 4.0 mi NNW 3.5 mph - N/A   Clear
11:53 PM 61.3 °F 61.2 °F 99% 29.88 in 4.0 mi Calm Calm - N/A   Clear